Location: Newark
(35.8833°N, 14.5000°E)
Time: 12:50:46
(UTC+00:00)

Altair - Pass Details

Date: 20 November 2019
Orbit: 1502 x 1682 km, 47.2° (Epoch: 12 December)

Event Time Altitude Azimuth Distance (km) Brightness Sun altitude
Rises 23:02:19 0° 194° (SSW) 4,694 - -73.6°
Reaches altitude 10° 23:05:57 10° 183° (S) 3,690 - -73.4°
Maximum altitude 23:13:24 28° 128° (SE) 2,525 - -72.9°
Drops below altitude 10° 23:20:46 10° 74° (ENE) 3,651 - -72.3°
Sets 23:24:18 0° 64° (ENE) 4,636 - -72.0°
